User: anonymous   Login
Location: Unspecified
(0.0000°N, 0.0000°E)
Time: 14:04:18
(UTC+00:00)
Language:

ARABSAT-6A - Orbit

View from above orbital plane
View from above orbital plane
View from above satellite
View from above satellite

Ground track
Ground track

The orbit data is extracted from the following two-line orbital elements,

1 44186U 19021A   19169.82061345 +.00000147 +00000-0 +00000-0 0  9993
2 44186 000.0603 088.0388 0002207 002.3452 142.3337 01.00275339000616
Epoch (UTC): 18 June 2019 19:41:41
Eccentricity: 0.0002207
inclination: 0.0603°
perigee height: 35776 km
apogee height: 35794 km
right ascension of ascending node: 88.0388°
argument of perigee: 2.3452°
revolutions per day: 1.00275339
mean anomaly at epoch: 142.3337°
orbit number at epoch: 61

The dashed part of the orbit path shows where the satellite is in the earth's shadow,  

DLR